Wind_Speed
23 24 24 25 26 28 29 31 31 32 31 30 28 27 25 23 22 21 21 21 20 20 19 19 18 17 16 16 15 16 16 18 18 19 19 19 19 19 19 19 19 19 19 18 18 18 17 17 16 16 16 17 17 18 19 19 18 17 17 17 18 18 18 17 17 18 18 19 20
25 25 26 28 30 31 32 32 32 31 29 26 24 22 20 18 19 19 19 19 20 20 19 19 18 18 17 17 17 17 18 19 20 20 21 21 20 20 20 20 20 20 19 19 19 18 18 18 18 17 17 17 18 19 19 19 18 16 16 17 17 17 18 18 19 19 20 20 20
25 28 30 31 32 32 32 31 29 26 23 21 19 17 16 16 16 17 17 18 18 18 18 18 18 18 18 18 19 19 20 20 21 21 21 21 21 20 20 20 20 20 20 20 19 19 19 19 19 19 18 18 18 18 18 18 18 17 17 17 18 19 19 19 19 19 19 19 19
26 28 30 31 31 31 29 27 25 22 20 19 19 19 18 17 16 16 16 16 16 16 16 16 17 17 18 19 20 21 21 21 21 21 21 22 22 21 20 20 19 19 19 20 20 20 20 20 20 20 20 19 19 18 16 17 17 17 17 17 18 18 18 19 19 19 18 18 18
25 26 28 28 28 27 24 22 20 18 19 21 21 21 19 18 17 16 16 15 14 14 14 15 16 18 19 20 21 22 22 21 21 21 21 21 21 21 20 19 19 19 19 20 21 21 21 21 20 20 20 20 18 17 17 18 18 18 18 18 18 18 17 18 18 18 17 17 17
25 26 26 26 25 22 19 18 17 17 18 20 21 21 20 19 17 16 15 15 15 15 16 17 19 20 20 21 22 22 22 21 21 20 20 20 20 20 19 19 19 19 19 20 21 22 22 22 21 20 20 19 18 18 19 19 19 19 19 19 18 18 18 18 18 18 17 17 17
25 26 26 25 23 21 20 18 17 18 18 18 18 19 19 18 18 18 19 20 20 21 21 22 21 21 21 21 21 22 22 21 21 20 20 20 20 20 20 19 19 19 20 20 21 22 22 22 21 20 20 20 20 20 19 19 19 20 20 20 20 19 18 17 17 17 17 17 17
26 27 27 26 26 25 24 22 21 20 19 19 19 19 19 20 22 25 26 25 25 26 26 24 22 21 21 21 21 22 22 22 21 21 20 20 20 20 19 19 19 20 20 21 21 22 21 21 20 20 19 20 20 20 19 18 18 19 19 20 20 20 19 18 18 18 17 17 17
28 29 29 28 26 25 26 27 26 24 22 22 23 24 25 28 29 29 28 27 28 27 24 21 20 20 20 21 21 21 22 22 21 21 21 20 20 20 20 20 20 20 21 22 22 22 22 21 20 20 20 19 19 18 17 17 17 17 18 19 20 20 20 19 18 18 18 18 18
30 31 30 28 25 23 23 26 26 25 24 24 26 29 32 34 33 30 29 29 27 23 20 19 19 19 20 20 21 21 21 22 22 22 21 21 21 21 20 20 20 20 21 22 22 22 22 21 22 23 22 22 20 19 18 17 18 18 19 19 19 20 19 19 18 18 19 19 19
27 28 28 27 24 21 21 22 23 24 27 29 33 35 35 34 33 31 29 25 21 18 18 18 19 19 20 21 21 21 21 22 22 22 22 22 22 22 22 21 21 22 22 23 22 22 22 22 23 23 22 21 20 20 19 19 20 20 20 20 21 20 20 19 18 19 19 19 19
23 24 25 24 22 21 20 21 24 27 31 34 35 35 34 33 31 28 23 19 17 17 18 18 19 20 21 21 21 21 22 22 23 23 23 23 23 23 23 23 23 23 23 23 23 22 22 22 22 22 21 20 20 21 21 20 20 21 21 21 21 21 21 20 19 19 19 19 19
21 22 22 22 22 23 23 25 29 32 34 36 36 34 32 28 24 20 17 16 16 17 18 19 20 21 22 22 22 22 22 23 23 23 24 24 24 24 23 24 24 24 23 23 23 22 22 21 21 20 20 20 20 20 19 19 19 19 20 20 21 22 21 21 20 20 19 19 19
21 21 20 21 23 27 29 31 32 33 34 34 32 28 25 22 18 16 15 15 16 18 19 21 21 21 21 21 22 22 23 23 24 24 24 24 24 24 23 23 23 23 22 22 21 20 20 20 20 20 20 20 19 19 18 18 18 18 18 19 20 21 20 20 19 19 19 19 20
21 20 20 21 25 29 32 32 31 30 28 26 23 20 18 16 15 14 15 16 18 19 20 20 20 20 20 21 22 23 23 24 24 24 24 24 24 23 23 22 22 21 20 19 18 18 17 17 18 18 18 18 18 17 17 18 19 19 19 18 18 18 18 18 17 17 17 18 18
21 20 20 20 23 25 28 27 25 22 20 18 16 15 14 14 14 15 17 18 19 19 19 19 19 20 21 21 22 22 22 23 22 22 22 22 22 22 21 21 20 19 18 17 16 16 15 16 17 18 18 18 18 17 17 18 18 18 17 17 17 17 16 15 15 15 15 15 15
20 20 19 19 19 20 21 21 19 18 16 15 14 14 14 15 17 18 18 18 18 18 18 19 19 21 21 22 21 21 21 21 20 20 20 20 20 20 19 19 18 16 16 15 15 15 15 15 16 17 19 20 19 17 16 15 14 14 14 16 18 18 17 15 14 13 13 13 14
19 19 19 18 19 19 19 19 18 17 16 14 14 15 16 17 18 18 17 17 17 18 19 20 20 21 21 21 20 19 19 18 18 18 18 18 18 17 17 16 15 14 14 14 14 15 14 14 15 16 18 21 20 18 16 13 11 12 13 16 17 17 16 15 14 13 12 13 13
20 20 20 20 20 20 20 19 18 17 15 15 15 16 17 17 17 17 16 16 16 18 19 20 21 20 20 19 18 18 17 16 16 16 16 16 16 16 15 14 14 13 13 13 13 13 13 14 15 17 19 20 20 19 16 14 12 11 12 13 14 15 15 15 15 15 15 15 15
20 21 21 21 20 20 19 19 17 16 16 16 16 16 17 16 16 16 16 16 17 18 20 21 21 19 18 17 16 16 15 14 14 14 14 13 13 13 12 12 12 11 11 11 11 12 13 13 15 16 16 16 15 14 13 12 11 11 12 13 14 15 17 18 19 19 20 20 21
21 21 21 20 19 18 17 16 16 16 16 17 17 17 16 16 16 16 16 17 19 20 21 20 19 17 16 15 15 14 13 13 12 12 12 11 11 11 11 11 11 11 12 14 16 16 16 14 13 11 10 9 9 10 10 12 13 14 15 16 17 18 20 21 22 24 25 26 27
21 21 19 17 16 16 16 16 16 16 16 16 16 16 16 16 16 18 19 20 20 20 18 17 15 14 14 14 13 12 11 11 11 11 12 12 12 12 14 16 16 16 17 19 21 20 17 13 9 7 7 7 9 10 12 14 16 18 19 20 21 22 23 24 25 26 27 27 26
21 20 18 16 16 17 18 19 18 17 16 16 16 16 17 18 20 21 22 20 18 16 15 14 13 12 11 11 11 11 11 12 12 11 12 14 15 15 17 18 19 19 19 20 19 17 14 12 10 9 10 12 13 15 17 18 19 20 21 22 23 23 24 24 23 22 22 21 21
21 19 17 17 19 21 23 24 22 21 20 21 21 22 22 23 23 21 19 16 15 13 13 12 11 10 10 10 11 12 13 14 14 13 13 16 16 17 18 18 16 15 13 13 12 11 11 11 12 14 16 17 18 19 20 20 21 21 22 22 22 21 21 21 20 20 19 19 19
19 18 19 21 23 26 28 29 28 28 28 28 29 28 27 25 22 19 17 15 14 14 13 13 12 13 14 14 14 14 15 15 16 15 14 14 14 14 14 13 11 10 10 10 11 12 13 14 16 17 19 19 20 20 20 20 21 21 20 20 19 19 19 20 20 20 20 20 20
18 20 23 27 30 31 32 31 32 32 32 31 30 28 25 22 20 18 17 17 16 16 15 15 16 17 18 17 16 15 14 14 14 14 13 12 11 11 11 11 12 13 14 15 16 16 17 17 18 19 19 19 19 19 19 19 19 18 18 17 17 18 18 19 20 20 20 20 20
22 26 29 31 32 32 32 32 31 30 29 27 25 23 21 20 19 18 18 17 17 17 17 17 17 17 16 16 14 13 11 11 11 11 11 12 12 13 14 15 16 16 17 17 17 18 18 19 19 19 19 19 18 18 17 17 16 16 15 16 17 18 18 19 20 20 20 20 20
29 30 31 31 30 30 29 28 27 25 24 22 21 20 19 18 18 17 17 17 17 17 17 16 15 15 14 13 12 12 12 12 12 13 14 15 16 17 17 17 18 18 17 17 17 17 18 19 19 19 18 17 17 16 16 15 15 15 15 16 17 18 18 19 20 20 20 20 19
31 30 29 28 27 26 25 23 22 21 20 19 18 17 16 16 16 16 16 17 16 16 15 15 15 14 14 13 14 14 15 16 17 18 18 18 18 18 18 18 18 17 17 17 17 17 18 18 18 18 17 17 16 16 16 15 15 15 16 17 17 18 19 19 20 20 20 20 20
28 25 24 22 21 20 19 18 18 18 17 17 16 15 14 15 15 16 16 16 15 15 15 15 15 15 16 16 17 18 18 19 19 19 19 18 17 17 17 17 16 14 15 17 17 17 17 17 17 17 17 17 17 17 17 17 16 16 17 17 18 19 20 20 21 21 21 21 21
21 18 17 16 16 16 16 16 16 16 16 16 15 15 15 15 15 15 15 15 16 16 16 17 17 18 19 19 19 19 19 19 18 17 16 15 15 15 15 15 13 12 14 17 17 17 17 17 17 17 18 18 18 18 19 19 19 20 20 20 20 20 20 21 21 21 21 21 22
14 13 12 12 13 15 15 16 16 16 15 15 15 15 15 15 16 16 16 17 18 18 19 19 20 20 19 19 19 18 17 17 15 13 12 13 13 13 14 14 13 13 14 16 17 17 17 18 18 19 19 19 19 20 20 20 21 22 21 21 20 20 21 21 21 21 21 22 22
11 11 12 13 14 15 16 16 15 15 15 16 16 16 17 17 18 19 19 19 20 20 20 20 19 18 17 16 15 14 14 14 13 13 13 13 13 13 13 12 12 13 15 16 16 17 18 19 20 20 20 20 20 21 21 21 21 21 20 20 20 20 20 21 21 21 22 22 22
13 14 15 16 16 16 16 16 16 16 17 17 18 19 19 20 20 20 20 20 20 20 19 18 16 14 13 13 12 12 12 13 14 14 14 14 13 13 13 12 10 12 15 16 17 19 20 21 21 21 21 21 21 21 21 21 20 19 19 19 20 20 20 20 21 21 22 22 22
16 16 16 16 16 16 17 17 18 18 19 19 20 20 20 20 19 18 19 19 19 19 17 15 13 12 11 11 12 12 12 13 13 13 13 13 13 13 13 11 9 12 16 17 19 20 21 21 21 21 21 20 21 21 20 20 18 18 18 19 20 20 20 20 20 21 21 21 22
17 16 16 17 17 17 18 19 19 20 20 20 20 20 20 18 17 16 17 18 18 17 15 13 12 12 12 12 12 12 12 12 12 12 12 14 14 14 13 11 9 12 16 18 19 20 20 20 20 20 20 20 20 20 20 19 17 17 18 19 19 19 19 20 20 20 21 21 21
16 16 17 17 18 19 19 20 20 19 18 18 19 19 18 17 15 14 14 15 15 15 14 13 12 12 12 12 12 12 12 12 11 11 13 15 15 14 13 12 10 11 14 17 19 19 20 19 19 20 20 20 21 21 20 19 18 18 18 19 19 19 19 20 20 20 21 21 21
16 17 17 18 18 18 18 19 19 18 17 17 18 18 17 16 14 13 13 13 13 13 13 13 13 13 12 12 12 12 11 11 11 12 14 15 15 15 14 14 12 11 12 16 18 19 20 20 20 20 20 20 21 21 20 19 18 18 19 19 19 19 20 20 20 20 20 21 21
16 17 17 18 18 18 17 17 17 18 17 17 17 16 15 14 13 12 12 13 13 13 14 14 14 13 13 12 12 12 12 12 12 12 13 15 15 15 16 16 15 14 13 15 18 19 20 20 20 20 20 20 21 21 21 20 19 19 19 19 19 19 19 19 19 19 19 19 19
16 17 17 17 17 17 17 17 17 17 16 15 14 14 13 12 12 12 13 13 14 14 14 14 14 14 13 13 13 12 12 14 14 13 12 14 15 16 17 17 17 16 14 14 17 19 21 21 21 21 21 21 21 22 22 21 19 19 19 19 19 19 19 19 19 18 18 18 18
16 17 17 17 17 17 17 17 16 15 14 13 13 12 12 12 12 13 14 14 14 14 14 14 14 14 14 14 14 13 14 16 17 15 13 13 15 17 17 17 17 16 15 14 16 19 22 23 23 22 22 22 23 23 23 21 19 18 18 18 18 18 19 19 19 19 19 18 18
Wind_Direction
295 300 303 303 303 303 302 300 297 294 291 288 286 285 284 281 279 278 278 280 281 283 283 282 280 279 279 280 284 289 292 293 293 291 290 287 283 279 274 269 266 263 258 254 253 252 251 253 250 249 251 253 252 251 250 248 247 248 250 253 256 259 261 264 266 267 268 269 270
300 301 301 302 302 302 299 296 293 290 288 286 283 282 280 277 277 278 279 280 281 283 284 284 283 283 283 285 287 290 292 292 291 290 289 287 283 279 275 269 265 260 256 254 252 249 249 254 254 253 253 252 252 250 247 245 245 247 250 253 256 260 263 265 268 269 270 269 268
301 302 302 302 302 300 297 293 289 286 283 282 281 282 281 280 279 279 279 280 281 282 283 284 285 286 287 288 288 289 289 290 290 290 289 287 284 280 275 270 264 260 256 252 249 247 249 252 253 253 252 251 250 248 245 246 248 250 253 256 259 262 265 267 268 269 268 266 264
302 303 304 303 302 299 295 291 286 282 278 276 280 282 282 280 279 279 279 280 281 282 284 286 288 289 289 287 286 286 287 288 289 289 288 285 283 280 276 269 265 261 256 252 250 250 251 252 251 251 251 250 249 246 244 248 252 254 256 259 262 264 265 266 267 266 263 261 259
301 303 304 303 301 298 294 288 283 277 274 277 279 280 279 278 278 280 280 281 281 281 282 285 287 287 287 286 286 285 286 287 288 288 287 284 281 277 273 269 265 261 257 255 254 254 254 252 250 250 250 249 246 245 249 254 256 257 258 261 263 264 264 264 263 261 258 256 256
301 303 304 304 302 297 291 284 279 276 276 278 280 279 278 276 276 276 274 270 267 267 271 277 281 284 287 287 287 286 287 287 288 288 287 284 280 276 273 271 267 263 260 257 256 255 254 251 250 249 248 246 246 249 252 255 256 258 260 262 263 262 261 261 261 260 257 254 253
300 301 303 303 300 293 287 284 282 282 282 282 282 280 277 271 265 261 257 255 257 264 271 276 281 285 287 288 289 289 288 288 288 288 286 284 280 276 273 270 267 264 262 259 257 255 253 250 248 248 247 247 250 253 256 257 258 260 262 263 263 261 258 256 257 257 256 253 252
296 297 299 299 295 290 286 285 285 285 284 283 282 277 270 263 258 255 254 258 268 276 279 280 282 284 286 288 290 291 290 289 288 286 285 283 280 276 272 268 265 263 261 259 256 253 251 249 248 247 248 251 255 258 259 259 260 261 263 264 263 260 257 255 256 256 254 252 250
294 295 296 297 295 292 289 286 283 281 279 277 275 271 268 267 266 264 264 272 281 284 284 281 282 284 287 290 292 292 292 290 288 286 284 281 278 275 271 267 264 261 260 258 255 252 250 249 248 249 251 254 256 257 257 258 260 263 264 264 262 260 258 256 255 253 252 250 249
297 299 301 301 298 293 289 286 284 282 279 275 274 274 275 276 274 274 277 283 286 285 281 280 283 286 290 292 293 293 292 290 287 285 283 280 277 274 270 267 264 261 259 258 254 252 250 249 251 253 255 256 255 254 255 257 260 262 262 261 260 260 259 258 256 254 252 251 250
304 307 309 309 303 294 287 285 285 284 282 280 282 282 281 279 278 281 284 287 284 280 278 280 284 288 291 293 294 293 291 289 287 285 282 279 276 273 270 267 264 262 260 258 255 252 251 252 253 254 254 253 252 253 256 258 261 261 260 259 260 260 259 258 256 255 254 254 253
310 312 314 313 308 300 291 286 285 285 285 285 285 284 282 281 282 285 285 282 277 276 278 281 285 289 292 294 293 292 291 290 288 285 282 279 276 274 271 268 265 263 261 258 255 253 253 253 253 253 252 250 252 256 259 261 261 261 260 260 259 258 257 257 257 257 257 257 257
313 313 312 310 307 303 297 292 290 289 289 288 287 285 284 284 285 283 279 275 275 278 281 284 288 291 294 294 293 292 292 291 288 285 282 280 277 275 272 269 266 264 261 258 256 254 254 253 253 253 253 254 256 258 260 263 263 263 261 259 258 257 256 257 258 260 261 261 259
314 312 309 305 304 304 303 301 298 296 293 291 289 287 286 285 281 276 274 275 278 281 284 288 291 293 293 293 293 293 293 291 288 285 282 280 278 276 273 270 267 264 261 259 257 255 255 255 256 257 258 260 261 263 265 266 265 264 262 259 258 257 257 259 261 263 263 262 261
315 311 306 302 302 305 308 308 306 301 296 292 289 287 284 280 276 275 277 279 281 284 288 291 293 293 294 293 294 295 294 292 290 286 284 281 279 276 273 270 268 265 263 261 260 259 259 260 261 262 263 264 266 269 270 268 264 261 259 258 258 259 261 264 267 268 267 265 263
314 311 307 303 302 306 310 311 308 303 296 290 286 283 279 276 277 279 281 283 286 288 290 291 293 294 296 296 297 297 297 295 292 288 285 282 280 277 274 272 270 268 266 266 265 266 266 266 266 264 263 264 266 270 271 269 265 261 257 254 254 256 259 265 269 271 270 268 266
317 315 312 308 306 307 308 307 304 298 293 288 284 280 278 279 282 284 286 287 287 288 290 291 294 296 298 299 301 301 299 296 293 289 286 283 281 280 278 275 273 272 271 271 272 274 274 273 270 265 261 259 260 263 265 266 265 260 255 251 250 251 255 260 265 268 269 267 266
320 319 317 314 311 309 307 304 301 297 293 289 285 283 283 285 287 288 288 287 287 288 291 293 296 298 300 301 302 301 298 295 293 290 288 286 285 284 282 280 278 276 276 276 277 278 279 277 271 265 260 257 256 254 253 253 256 257 255 254 253 253 253 255 256 257 258 258 257
321 320 319 316 314 312 309 306 303 300 297 293 291 290 290 291 291 290 290 289 289 291 293 296 299 301 302 301 300 299 298 296 294 292 291 290 289 287 286 285 283 283 283 281 279 278 276 272 268 264 261 258 253 249 247 247 252 256 258 257 255 252 249 247 245 245 245 247 250
320 319 318 316 315 313 311 309 308 305 302 300 298 297 296 296 294 294 294 294 292 293 295 299 302 303 301 300 299 300 299 297 296 294 294 294 294 292 291 290 289 290 287 279 273 270 268 268 267 265 263 259 253 249 248 249 251 254 254 252 251 249 247 246 247 248 251 255 260
319 319 318 318 317 317 317 315 313 310 307 305 304 303 302 300 299 298 296 294 293 295 299 303 303 301 299 298 299 300 300 299 297 296 295 293 293 291 286 279 276 277 274 265 262 262 263 264 266 266 264 259 253 251 251 252 253 254 255 255 257 258 259 260 263 265 267 270 273
319 320 321 322 322 320 317 314 311 309 309 309 308 307 305 302 298 294 292 293 296 299 302 304 302 298 296 295 297 299 300 298 295 292 288 281 280 276 270 263 261 262 263 261 261 260 257 251 248 250 255 259 261 262 263 265 268 269 271 273 274 276 277 277 278 278 279 280 281
318 320 322 322 318 313 308 305 303 303 304 306 305 301 295 292 290 292 295 299 300 301 302 301 300 298 297 297 296 293 289 286 282 282 279 270 268 266 265 262 261 262 264 264 261 255 246 236 236 248 263 273 278 280 282 284 286 288 289 290 290 290 290 290 288 285 283 282 281
316 317 318 315 310 306 302 299 298 297 296 294 292 290 289 290 293 298 303 305 303 299 296 295 298 297 294 294 294 288 282 280 273 273 271 264 262 262 263 264 262 262 263 263 259 252 248 251 260 271 280 287 290 293 294 296 297 299 299 298 297 296 294 292 288 284 281 278 276
316 314 311 307 305 303 300 298 297 296 295 294 294 294 295 297 301 305 307 307 305 302 297 294 296 292 287 287 289 286 282 278 271 269 267 262 261 261 262 265 263 264 267 273 275 276 277 280 284 289 294 297 300 302 303 304 304 303 302 299 296 293 290 288 285 283 280 277 274
316 311 306 304 303 302 301 301 300 300 300 300 301 302 304 307 309 310 310 310 309 306 302 296 292 288 286 285 284 282 279 275 270 267 267 268 269 272 275 278 280 282 284 287 290 292 294 297 300 303 306 308 309 310 309 308 306 304 300 296 291 286 283 282 281 280 278 277 276
311 308 307 306 306 305 305 305 306 306 307 309 311 313 315 317 317 316 314 311 308 304 300 294 289 286 284 282 279 276 275 276 276 278 281 285 291 295 297 299 300 299 299 299 301 304 308 311 314 315 315 314 313 311 308 306 303 301 297 293 287 284 282 281 280 279 278 277 276
312 312 311 310 309 309 310 310 312 314 316 318 321 323 324 323 321 317 314 310 305 301 296 291 287 284 282 280 279 281 285 290 296 300 303 306 307 310 312 316 316 315 312 311 312 315 318 319 319 318 316 314 311 308 305 302 300 296 292 288 285 284 283 282 282 281 281 280 279
316 316 316 315 315 316 317 319 321 323 325 328 330 330 327 323 319 316 313 310 306 302 298 293 292 291 292 295 298 301 304 307 311 314 316 318 319 320 323 326 327 323 317 314 314 315 316 316 315 314 312 309 306 304 301 297 293 290 288 285 285 284 284 284 284 284 283 283 282
321 323 324 324 325 326 328 329 330 331 331 332 331 327 323 319 317 316 315 314 313 311 308 306 307 309 312 314 316 318 319 321 323 325 327 328 327 326 328 332 332 322 309 305 305 307 308 309 309 308 307 304 302 299 296 292 288 286 286 285 285 285 285 285 284 284 284 283 283
331 334 336 335 334 333 333 332 332 332 332 330 327 324 322 321 321 322 322 322 322 321 321 321 322 324 325 326 328 329 330 331 332 332 331 329 326 323 324 329 327 311 295 294 296 299 301 303 304 304 303 301 299 297 294 292 291 290 289 288 286 285 284 284 283 283 283 282 282
343 343 341 339 334 331 330 331 332 332 331 330 330 329 329 329 330 331 331 331 331 332 332 332 333 333 334 335 336 336 335 334 332 326 321 318 316 314 316 321 316 300 288 290 292 294 295 298 300 302 302 301 300 298 297 297 297 297 295 291 288 286 285 284 283 283 283 282 282
340 332 328 326 327 329 332 334 335 335 336 336 337 338 338 339 339 340 341 341 342 342 342 341 341 340 340 339 337 333 329 325 321 317 313 312 310 310 312 316 315 302 293 293 292 292 293 296 300 302 303 303 302 301 300 301 302 301 297 291 289 287 285 284 285 285 285 284 283
322 319 321 326 331 335 338 340 341 342 343 344 345 346 346 346 346 346 348 349 350 350 350 349 347 343 338 333 328 322 317 315 316 316 315 313 312 312 311 311 313 303 296 294 292 292 294 297 301 303 305 304 304 303 304 305 304 299 293 290 289 288 287 288 288 287 286 285 284
316 321 328 335 340 343 345 346 347 348 349 349 350 351 351 351 350 349 349 351 353 354 354 350 344 335 326 322 318 316 314 313 313 313 314 314 314 314 313 312 310 299 292 291 291 292 296 300 304 305 306 306 306 307 308 308 302 296 293 292 291 291 291 291 290 289 287 286 284
322 330 339 344 347 349 350 350 351 351 351 351 352 353 353 353 350 347 346 347 349 350 348 340 330 324 322 320 319 317 315 314 312 310 311 314 317 318 318 317 310 298 292 290 292 296 301 305 308 309 309 309 309 310 311 309 301 297 295 295 294 294 294 293 291 289 287 285 284
333 340 346 349 352 352 353 353 352 352 350 349 350 351 352 352 349 344 340 339 339 338 335 329 324 321 320 317 317 316 315 313 309 306 308 314 320 324 325 324 315 303 297 295 298 303 308 311 312 313 312 312 312 313 312 309 303 299 298 297 296 295 295 294 292 290 287 285 284
342 347 349 352 354 354 353 352 351 348 346 345 347 349 351 351 347 340 334 332 329 326 324 323 322 320 317 315 315 314 314 314 310 307 308 313 319 324 326 326 322 314 304 300 304 309 313 316 316 316 315 314 314 314 313 311 306 302 299 298 297 296 295 293 293 291 289 288 286
347 350 351 353 353 353 352 350 349 347 345 344 344 345 346 345 339 335 332 330 328 325 323 321 320 317 315 313 312 311 312 316 315 310 307 310 312 316 321 324 326 323 314 307 308 312 316 318 319 319 318 317 317 317 317 314 309 304 301 299 298 297 296 295 294 294 293 292 290
350 353 354 354 353 351 350 349 348 347 344 340 337 336 335 334 333 332 332 330 328 326 323 321 319 317 315 312 310 308 309 315 319 316 309 308 307 309 313 318 324 327 323 314 312 313 316 320 321 321 321 321 321 323 323 320 314 308 304 302 301 300 299 297 296 295 294 294 292
357 358 358 355 353 351 348 347 347 344 339 334 330 327 326 327 329 330 330 329 327 325 323 322 320 318 317 314 312 307 305 309 317 318 313 309 308 308 309 312 316 319 319 314 310 311 316 320 322 323 323 324 325 327 329 327 320 312 308 305 304 302 300 298 297 295 295 294 294
Height
1517 1516 1516 1515 1514 1513 1512 1512 1511 1510 1509 1508 1507 1506 1505 1505 1505 1504 1504 1504 1504 1503 1502 1501 1500 1499 1498 1497 1496 1495 1494 1494 1493 1493 1491 1490 1489 1489 1488 1487 1486 1486 1485 1485 1484 1484 1484 1484 1483 1483 1483 1482 1482 1482 1482 1481 1481 1481 1481 1481 1481 1480 1480 1480 1479 1479 1479 1479 1479
1515 1515 1514 1513 1512 1511 1510 1509 1508 1508 1507 1506 1504 1504 1503 1503 1503 1502 1502 1502 1502 1501 1501 1500 1499 1498 1497 1495 1494 1493 1492 1492 1491 1490 1489 1488 1487 1486 1486 1485 1484 1484 1484 1483 1483 1482 1482 1482 1482 1481 1481 1481 1480 1480 1479 1479 1479 1479 1479 1479 1479 1479 1479 1478 1478 1477 1477 1477 1477
1514 1513 1512 1511 1510 1509 1509 1507 1506 1505 1505 1504 1503 1502 1502 1501 1501 1500 1499 1499 1499 1499 1499 1498 1497 1496 1495 1494 1493 1492 1491 1490 1489 1488 1487 1486 1485 1484 1484 1483 1482 1482 1482 1481 1481 1480 1480 1480 1480 1480 1479 1479 1479 1478 1478 1477 1477 1477 1477 1477 1477 1477 1477 1476 1476 1475 1475 1475 1475
1512 1511 1510 1509 1509 1507 1506 1505 1504 1504 1503 1502 1502 1501 1501 1500 1499 1498 1498 1497 1497 1497 1496 1496 1494 1494 1493 1492 1491 1490 1489 1488 1487 1486 1485 1484 1483 1482 1481 1481 1480 1480 1480 1479 1479 1479 1479 1479 1479 1478 1478 1477 1477 1476 1476 1476 1475 1475 1475 1475 1475 1475 1474 1474 1474 1474 1474 1473 1473
1511 1510 1509 1508 1507 1505 1504 1503 1502 1501 1501 1500 1500 1499 1499 1498 1497 1497 1496 1495 1494 1494 1493 1493 1492 1491 1490 1490 1489 1489 1487 1486 1485 1484 1483 1482 1481 1480 1480 1479 1479 1479 1479 1478 1478 1477 1477 1477 1477 1476 1476 1475 1475 1474 1474 1474 1474 1474 1474 1474 1474 1473 1473 1472 1472 1472 1472 1471 1471
1510 1509 1508 1507 1505 1504 1502 1501 1500 1500 1499 1498 1498 1497 1497 1497 1496 1495 1493 1492 1491 1490 1489 1489 1489 1489 1489 1489 1488 1487 1485 1484 1483 1482 1481 1480 1479 1479 1478 1477 1477 1477 1477 1477 1476 1476 1475 1475 1475 1474 1474 1474 1473 1473 1472 1473 1472 1472 1472 1472 1472 1471 1471 1470 1470 1470 1470 1469 1469
1509 1508 1507 1506 1504 1502 1500 1499 1499 1499 1498 1497 1496 1495 1495 1494 1493 1491 1489 1488 1487 1487 1487 1488 1488 1488 1488 1487 1486 1485 1483 1482 1481 1480 1479 1479 1478 1477 1476 1476 1475 1475 1474 1474 1474 1474 1473 1473 1473 1472 1472 1471 1471 1471 1470 1471 1471 1470 1470 1470 1470 1469 1469 1469 1468 1468 1468 1468 1468
1507 1506 1505 1504 1503 1500 1499 1498 1498 1497 1497 1496 1495 1494 1492 1490 1489 1487 1486 1485 1486 1486 1486 1487 1487 1486 1486 1485 1484 1482 1481 1480 1479 1478 1478 1477 1476 1475 1474 1474 1473 1473 1472 1472 1472 1472 1471 1471 1471 1470 1470 1469 1469 1469 1469 1469 1469 1469 1469 1469 1468 1468 1467 1467 1466 1466 1466 1466 1466
1504 1503 1503 1502 1501 1499 1496 1495 1495 1495 1495 1494 1492 1490 1489 1488 1486 1485 1485 1485 1485 1485 1485 1486 1485 1484 1484 1482 1481 1480 1479 1479 1478 1477 1476 1475 1474 1473 1472 1472 1471 1470 1470 1470 1470 1469 1469 1469 1469 1469 1469 1468 1468 1467 1467 1467 1467 1467 1467 1467 1467 1466 1465 1465 1464 1464 1464 1464 1464
1502 1500 1500 1499 1499 1498 1495 1493 1493 1493 1492 1491 1489 1488 1487 1486 1485 1485 1484 1484 1484 1484 1484 1484 1484 1482 1481 1480 1479 1478 1478 1477 1476 1475 1474 1473 1472 1471 1470 1470 1469 1469 1468 1468 1467 1467 1467 1467 1467 1467 1467 1466 1466 1465 1465 1465 1465 1464 1464 1464 1464 1464 1464 1463 1463 1463 1463 1462 1462
1499 1498 1497 1496 1496 1496 1494 1492 1491 1490 1489 1489 1487 1486 1485 1484 1484 1484 1484 1483 1483 1483 1483 1482 1481 1480 1479 1478 1477 1477 1476 1475 1474 1473 1472 1471 1470 1470 1469 1468 1467 1467 1466 1466 1465 1465 1465 1465 1465 1465 1465 1464 1464 1463 1463 1462 1462 1462 1462 1462 1462 1462 1462 1462 1462 1461 1461 1461 1460
1497 1496 1495 1494 1494 1494 1493 1492 1490 1488 1487 1486 1485 1484 1484 1483 1483 1482 1482 1482 1482 1481 1480 1480 1479 1478 1477 1476 1476 1475 1474 1474 1472 1472 1471 1470 1469 1468 1467 1466 1465 1465 1464 1464 1464 1464 1464 1464 1463 1463 1463 1462 1462 1461 1461 1460 1460 1460 1460 1460 1460 1460 1460 1460 1460 1460 1459 1459 1459
1496 1494 1494 1493 1492 1492 1491 1490 1489 1487 1486 1485 1484 1483 1483 1482 1482 1481 1481 1480 1480 1479 1478 1477 1477 1476 1476 1475 1474 1474 1473 1472 1471 1470 1469 1468 1467 1466 1465 1464 1464 1463 1463 1463 1462 1462 1462 1462 1462 1461 1461 1460 1460 1459 1459 1459 1459 1459 1459 1458 1458 1458 1458 1458 1458 1458 1458 1458 1457
1495 1494 1493 1492 1491 1490 1489 1488 1486 1485 1484 1483 1482 1482 1481 1481 1481 1480 1480 1479 1478 1477 1476 1475 1475 1475 1474 1473 1473 1472 1471 1470 1469 1468 1467 1466 1465 1465 1464 1463 1462 1462 1461 1461 1461 1461 1461 1460 1460 1460 1459 1459 1458 1458 1457 1457 1456 1456 1456 1456 1456 1456 1456 1456 1456 1456 1456 1456 1455
1494 1494 1493 1491 1490 1488 1487 1485 1484 1483 1483 1482 1481 1481 1481 1480 1480 1479 1478 1477 1476 1475 1474 1474 1473 1473 1472 1471 1470 1469 1469 1468 1467 1466 1465 1464 1464 1463 1462 1462 1461 1460 1460 1460 1460 1459 1459 1459 1459 1458 1458 1457 1457 1456 1455 1454 1454 1453 1454 1454 1454 1454 1454 1454 1454 1454 1454 1454 1454
1494 1493 1492 1490 1489 1487 1485 1484 1483 1482 1482 1481 1481 1480 1480 1479 1478 1477 1476 1475 1474 1474 1473 1472 1472 1471 1470 1469 1469 1468 1466 1465 1465 1464 1464 1463 1462 1462 1461 1460 1460 1459 1459 1459 1459 1458 1458 1457 1456 1456 1455 1455 1454 1454 1453 1452 1451 1451 1452 1452 1452 1452 1452 1452 1452 1452 1452 1452 1452
1492 1491 1490 1489 1488 1487 1485 1484 1483 1482 1481 1481 1480 1479 1479 1478 1477 1476 1475 1474 1473 1472 1471 1470 1470 1469 1468 1467 1466 1465 1464 1464 1463 1463 1462 1461 1461 1460 1460 1459 1459 1459 1459 1458 1458 1457 1456 1455 1454 1454 1453 1452 1452 1452 1451 1450 1450 1449 1449 1449 1449 1449 1450 1450 1450 1450 1450 1450 1450
1491 1491 1490 1489 1488 1487 1485 1484 1483 1482 1481 1480 1479 1479 1477 1476 1475 1474 1474 1473 1472 1471 1469 1469 1468 1467 1466 1465 1464 1464 1463 1462 1462 1461 1461 1460 1459 1459 1459 1459 1458 1458 1458 1457 1456 1456 1455 1454 1452 1451 1451 1450 1450 1449 1449 1448 1448 1447 1447 1447 1447 1448 1448 1448 1448 1448 1448 1448 1448
1491 1490 1489 1488 1487 1486 1485 1484 1483 1482 1481 1480 1479 1478 1476 1475 1474 1474 1473 1472 1470 1469 1468 1467 1466 1465 1464 1464 1463 1462 1462 1461 1460 1460 1459 1459 1459 1458 1458 1458 1457 1457 1456 1455 1454 1454 1453 1452 1450 1449 1449 1448 1448 1447 1447 1446 1446 1445 1445 1445 1446 1446 1446 1446 1445 1445 1445 1445 1445
1490 1489 1488 1487 1486 1485 1484 1483 1482 1481 1480 1479 1478 1477 1476 1475 1474 1473 1471 1470 1469 1468 1466 1465 1464 1464 1463 1463 1462 1461 1460 1459 1459 1458 1458 1458 1457 1457 1456 1456 1456 1455 1454 1453 1452 1451 1450 1449 1449 1448 1447 1446 1446 1445 1445 1444 1444 1444 1444 1444 1444 1444 1444 1444 1443 1443 1443 1443 1444
1489 1488 1487 1486 1485 1484 1483 1482 1481 1480 1479 1478 1477 1476 1475 1474 1473 1471 1469 1468 1466 1465 1464 1464 1463 1462 1462 1461 1460 1459 1459 1458 1457 1457 1456 1456 1455 1455 1454 1454 1453 1453 1451 1450 1449 1449 1448 1447 1447 1446 1446 1445 1445 1444 1444 1443 1443 1443 1443 1443 1443 1443 1443 1443 1443 1443 1443 1442 1442
1488 1487 1486 1485 1484 1483 1481 1480 1479 1479 1478 1477 1476 1475 1474 1472 1470 1469 1467 1465 1464 1464 1463 1462 1462 1461 1460 1459 1459 1458 1457 1457 1456 1455 1455 1454 1454 1453 1452 1451 1451 1450 1449 1447 1446 1446 1446 1445 1445 1445 1444 1444 1444 1443 1443 1442 1442 1442 1442 1442 1442 1442 1442 1442 1442 1441 1441 1440 1440
1487 1486 1485 1484 1482 1481 1480 1479 1478 1477 1476 1475 1474 1473 1471 1469 1468 1466 1465 1464 1463 1463 1462 1461 1460 1459 1459 1458 1457 1456 1455 1455 1454 1454 1453 1452 1452 1451 1450 1449 1449 1448 1446 1445 1445 1444 1444 1444 1443 1443 1443 1443 1443 1443 1442 1442 1442 1441 1441 1441 1441 1441 1441 1440 1440 1439 1439 1439 1438
1486 1485 1484 1482 1481 1480 1479 1477 1476 1475 1474 1473 1471 1470 1469 1467 1466 1465 1464 1463 1462 1462 1461 1460 1459 1458 1457 1456 1455 1454 1454 1453 1452 1452 1451 1450 1449 1448 1448 1447 1446 1446 1445 1444 1444 1443 1443 1442 1442 1442 1442 1442 1442 1442 1442 1441 1440 1440 1440 1440 1439 1439 1439 1439 1439 1439 1438 1438 1437
1484 1483 1482 1480 1479 1478 1476 1475 1474 1473 1472 1470 1469 1468 1467 1466 1465 1464 1464 1463 1462 1460 1460 1459 1458 1456 1455 1455 1454 1453 1452 1451 1451 1450 1449 1448 1447 1447 1446 1445 1445 1445 1444 1444 1443 1443 1443 1442 1442 1442 1442 1441 1441 1441 1440 1440 1439 1439 1439 1439 1439 1438 1438 1438 1437 1437 1437 1436 1436
1483 1481 1480 1479 1477 1476 1475 1474 1472 1471 1470 1469 1468 1466 1465 1465 1464 1464 1463 1462 1461 1460 1459 1458 1457 1456 1455 1454 1453 1452 1451 1450 1449 1449 1448 1447 1446 1446 1445 1445 1445 1444 1444 1444 1443 1443 1442 1442 1441 1441 1440 1440 1439 1439 1439 1439 1438 1438 1438 1438 1437 1437 1437 1437 1436 1436 1435 1434 1434
1481 1480 1478 1477 1475 1474 1473 1472 1470 1469 1468 1467 1466 1465 1464 1464 1463 1462 1461 1460 1459 1459 1458 1457 1456 1455 1454 1453 1452 1451 1450 1449 1449 1448 1447 1447 1446 1446 1445 1445 1444 1444 1444 1443 1442 1442 1441 1441 1440 1439 1439 1439 1438 1438 1438 1437 1437 1437 1437 1437 1436 1436 1436 1435 1435 1434 1434 1433 1432
1480 1478 1477 1475 1474 1473 1471 1470 1469 1468 1467 1466 1465 1464 1463 1463 1462 1461 1460 1459 1458 1457 1456 1456 1455 1454 1453 1452 1451 1451 1450 1449 1448 1448 1447 1447 1446 1445 1445 1444 1443 1443 1442 1442 1441 1441 1440 1439 1439 1438 1438 1437 1437 1436 1436 1436 1436 1436 1436 1436 1435 1435 1434 1434 1433 1433 1432 1431 1431
1478 1476 1475 1474 1472 1471 1470 1469 1468 1467 1466 1465 1464 1464 1463 1462 1461 1460 1459 1458 1457 1456 1456 1455 1454 1453 1453 1452 1451 1450 1450 1449 1448 1448 1447 1446 1445 1444 1444 1443 1442 1441 1441 1440 1440 1439 1439 1438 1438 1437 1436 1436 1436 1435 1435 1435 1435 1435 1435 1435 1434 1434 1433 1433 1432 1431 1430 1430 1429
1476 1475 1474 1473 1471 1470 1469 1469 1467 1466 1466 1465 1464 1463 1462 1461 1460 1459 1458 1458 1457 1456 1455 1454 1454 1453 1452 1451 1451 1450 1449 1449 1448 1447 1446 1445 1444 1444 1443 1442 1442 1441 1440 1439 1439 1438 1438 1437 1436 1436 1435 1435 1435 1434 1434 1434 1434 1434 1434 1433 1433 1432 1431 1431 1430 1429 1429 1428 1427
1476 1475 1474 1473 1471 1470 1469 1468 1467 1466 1465 1464 1463 1462 1461 1461 1460 1459 1458 1457 1456 1455 1455 1454 1453 1452 1452 1451 1450 1449 1448 1448 1447 1446 1445 1445 1444 1444 1443 1442 1442 1441 1440 1438 1438 1437 1437 1436 1435 1435 1434 1434 1434 1434 1433 1433 1433 1432 1431 1431 1430 1430 1429 1429 1428 1427 1427 1426 1425
1476 1475 1474 1473 1471 1469 1469 1468 1467 1466 1465 1464 1463 1462 1461 1460 1459 1459 1458 1457 1456 1455 1454 1453 1452 1452 1451 1450 1449 1449 1448 1447 1447 1446 1446 1445 1444 1444 1443 1442 1442 1440 1439 1438 1437 1437 1436 1435 1435 1434 1434 1433 1433 1432 1432 1431 1431 1430 1429 1429 1429 1428 1428 1427 1426 1425 1424 1424 1423
1476 1474 1473 1472 1470 1469 1468 1467 1466 1465 1464 1464 1463 1462 1461 1460 1459 1458 1457 1456 1455 1454 1453 1452 1452 1451 1450 1449 1449 1448 1448 1447 1446 1446 1445 1444 1444 1443 1442 1442 1442 1440 1438 1437 1437 1436 1435 1435 1434 1434 1433 1432 1432 1431 1430 1430 1429 1428 1428 1427 1427 1426 1426 1425 1424 1424 1423 1422 1421
1475 1473 1472 1471 1470 1469 1468 1467 1466 1465 1464 1463 1462 1461 1460 1459 1458 1457 1456 1455 1454 1454 1453 1452 1451 1450 1449 1449 1449 1448 1447 1446 1446 1445 1444 1444 1443 1442 1442 1441 1442 1439 1437 1436 1436 1435 1434 1434 1433 1433 1432 1431 1430 1430 1429 1428 1428 1427 1427 1426 1425 1425 1424 1424 1423 1422 1421 1420 1419
1474 1473 1472 1470 1469 1469 1468 1467 1466 1465 1464 1463 1462 1460 1459 1459 1458 1457 1455 1454 1454 1453 1452 1451 1450 1450 1449 1449 1449 1448 1448 1446 1445 1445 1444 1443 1443 1442 1441 1441 1441 1439 1436 1436 1435 1434 1434 1433 1432 1431 1430 1430 1429 1428 1428 1427 1427 1426 1425 1425 1424 1423 1422 1422 1421 1420 1419 1419 1418
1473 1472 1471 1470 1469 1468 1467 1466 1465 1464 1463 1462 1461 1460 1459 1458 1457 1456 1455 1454 1453 1452 1451 1451 1450 1450 1450 1450 1449 1448 1448 1447 1445 1444 1443 1443 1442 1441 1440 1440 1440 1438 1436 1435 1434 1434 1433 1432 1431 1430 1429 1429 1428 1427 1426 1426 1425 1424 1424 1423 1422 1421 1421 1420 1419 1418 1417 1416 1416
1473 1472 1471 1470 1469 1468 1467 1466 1465 1464 1463 1462 1461 1459 1459 1458 1457 1456 1455 1454 1453 1452 1452 1452 1451 1451 1450 1449 1449 1448 1447 1446 1445 1444 1443 1441 1441 1440 1439 1439 1439 1437 1435 1434 1433 1432 1432 1431 1430 1429 1428 1427 1426 1425 1425 1424 1424 1423 1422 1421 1420 1420 1419 1418 1417 1416 1415 1414 1413
1472 1471 1471 1470 1469 1468 1467 1466 1465 1464 1463 1461 1460 1459 1458 1457 1457 1456 1455 1454 1454 1453 1453 1452 1452 1451 1450 1449 1448 1447 1446 1445 1444 1443 1442 1440 1439 1439 1438 1438 1437 1436 1435 1433 1432 1431 1430 1429 1429 1428 1427 1426 1425 1424 1423 1423 1422 1421 1420 1419 1419 1418 1417 1415 1414 1413 1412 1411 1411
1472 1471 1470 1469 1469 1468 1467 1466 1464 1464 1462 1461 1460 1459 1458 1458 1457 1457 1456 1455 1454 1454 1453 1452 1451 1450 1449 1448 1447 1446 1445 1444 1443 1442 1441 1440 1439 1438 1437 1436 1435 1435 1434 1432 1431 1430 1429 1428 1427 1426 1425 1425 1424 1423 1422 1421 1420 1419 1419 1418 1416 1415 1414 1413 1412 1411 1410 1409 1409
1472 1471 1470 1469 1468 1467 1466 1465 1464 1463 1462 1461 1460 1459 1459 1459 1458 1457 1456 1455 1454 1454 1453 1452 1451 1450 1449 1447 1446 1445 1444 1443 1443 1442 1440 1439 1438 1437 1435 1435 1434 1434 1433 1431 1430 1429 1428 1427 1426 1425 1424 1424 1423 1422 1421 1419 1419 1418 1416 1415 1414 1413 1412 1411 1410 1409 1409 1408 1407
1472 1471 1470 1469 1468 1467 1466 1465 1464 1463 1463 1462 1461 1460 1459 1459 1458 1457 1456 1455 1454 1453 1452 1451 1450 1449 1448 1447 1446 1445 1444 1442 1441 1441 1440 1439 1438 1436 1435 1434 1433 1433 1432 1431 1430 1428 1427 1426 1425 1424 1423 1422 1421 1420 1419 1418 1417 1416 1414 1414 1413 1411 1410 1409 1408 1407 1407 1406 1405